Location: Tucson
(32.2217°N, 110.9265°W)
Time: 17:32:29
(UTC-07:00)

ISS - Pass Details

Date: 07 October 2021
Orbit: 417 x 423 km, 51.6° (Epoch: 22 October)

Event Time Altitude Azimuth Distance (km) Brightness Sun altitude
Rises 19:10:17 0° 309° (NW) 2,357 1.0 -15.6°
Reaches altitude 10° 19:12:25 10° 303° (WNW) 1,492 0.0 -16.1°
Maximum altitude 19:15:40 48° 228° (SW) 549 -2.9 -16.8°
Enters shadow 19:17:39 20° 161° (SSE) 1,010 -2.1 -17.2°
